sat.trackr.live / text

‹ back to catalog

STARLINK-36104

NORAD 66964 · 2025-288F

PAYLOAD ACTIVE UNKNOWN

§ Identity

Operator
Country
US
Launch date
2025-12-08
Launch site
AFETR
Launch vehicle
Mass (kg)
RCS (m²)

Purposes: comms

External: N2YO · Heavens-Above · Gunter

§ Orbital elements

Epoch: 2026-05-25T04:34:54.642144Z

Period
94.27 min
Inclination
43.0007°
Eccentricity
0.0002324
Mean motion
15.27594244 rev/d
Perigee alt
481.4 km
Apogee alt
484.6 km
Semi-major
6,861.1 km
B*
4.1018e-4
RAAN
311.7362°
Arg perigee
271.8790°
Mean anomaly
88.1795°
Rev number
2,698

§ Raw data

STARLINK-361041 66964U 25288F   26145.19091021  .00011047  00000+0  41018-3 0  99962 66964  43.0007 311.7362 0002324 271.8790  88.1795 15.27594244 26981

JSON: /api/v1/satellites/66964 · /tle

For live sub-satellite position, see the globe view (requires WebGL).

§ Visibility from observer

Set your observer location to see the next 7 days of passes ≥ 10°. The values pass through the URL so the page stays shareable.

No JS? Fill the form by hand. The geolocation button needs JavaScript.